WA8SIE Weather Reports


time (UTC)temp
F
wind
direction
speed
knots
gust
knots
rain 1hr
in
rain 24hr
in
rain mn
in
humidity
%
barometer
mb
20260510023010 58 148 0.0 0.0 0.00 0.00 0.00 85 1006.2
20260510022510 58 148 1.7 0.0 0.00 0.00 0.00 85 1005.9
20260510022010 58 150 0.0 0.0 0.00 0.00 0.00 84 1005.9
20260510021511 58 150 0.0 0.0 0.00 0.00 0.00 84 1005.9
20260510021011 58 150 0.0 0.0 0.00 0.00 0.00 83 1005.6
20260510020511 59 150 2.6 0.0 0.00 0.00 0.00 83 1005.6
20260510020011 59 150 1.7 0.0 0.00 0.00 0.00 82 1005.6
20260510015011 60 155 2.6 0.0 0.00 0.00 0.00 80 1005.5
20260510014511 60 155 0.0 0.0 0.00 0.00 0.00 79 1005.5
20260510013511 60 223 0.0 0.0 0.00 0.00 0.00 78 1005.4
20260510013011 60 223 0.0 0.0 0.00 0.00 0.00 77 1005.4
20260510012511 60 223 0.0 0.0 0.00 0.00 0.00 76 1005.1
20260510012011 61 223 0.0 0.0 0.00 0.00 0.00 75 1005.1
20260510011511 61 223 0.0 0.0 0.00 0.00 0.00 75 1005.1
20260510011011 62 223 0.0 0.0 0.00 0.00 0.00 73 1005.0
20260510010513 62 223 0.0 0.0 0.00 0.00 0.00 73 1005.0
20260510010011 62 223 0.0 0.0 0.00 0.00 0.00 72 1005.0
20260510005511 63 223 0.0 0.0 0.00 0.00 0.00 71 1004.7
20260510005011 64 223 0.0 0.0 0.00 0.00 0.00 69 1004.7
20260510004012 65 223 0.0 0.0 0.00 0.00 0.00 66 1004.5
20260510003511 66 223 0.0 0.0 0.00 0.00 0.00 65 1004.5
20260510003011 66 223 0.0 0.0 0.00 0.00 0.00 63 1004.5
20260510002512 66 223 0.0 0.0 0.00 0.00 0.00 62 1004.3
20260510002011 67 223 0.0 0.0 0.00 0.00 0.00 62 1004.3
20260510001511 67 223 0.0 0.0 0.00 0.00 0.00 61 1004.3
20260510001011 67 223 0.0 0.0 0.00 0.00 0.00 60 1004.3
20260510000511 68 223 0.0 0.0 0.00 0.00 0.00 60 1004.3
20260510000013 68 223 0.0 0.0 0.00 0.00 0.00 59 1004.3
20260509235512 68 188 0.0 0.0 0.00 0.00 0.00 59 1004.3
20260509235013 68 192 1.7 0.0 0.00 0.00 0.00 59 1004.3
20260509234511 68 191 0.0 0.0 0.00 0.00 0.00 59 1004.3
20260509234012 68 192 0.0 0.0 0.00 0.00 0.00 58 1004.3
20260509233511 69 192 0.0 0.0 0.00 0.00 0.00 58 1004.3
20260509233011 69 228 0.0 0.0 0.00 0.00 0.00 58 1004.3
20260509232511 69 194 4.3 0.0 0.00 0.00 0.00 58 1004.2
20260509232011 69 218 0.0 0.0 0.00 0.00 0.00 58 1004.2
20260509231511 69 217 0.0 0.0 0.00 0.00 0.00 58 1004.2
20260509231011 69 195 1.7 0.0 0.00 0.00 0.00 58 1004.1
20260509230511 69 170 0.0 0.0 0.00 0.00 0.00 58 1004.1
20260509230011 69 210 0.0 0.0 0.00 0.00 0.00 57 1004.1
20260509225511 69 210 0.0 0.0 0.00 0.00 0.00 57 1004.1
20260509225011 70 206 3.5 0.0 0.00 0.00 0.00 56 1004.1
20260509224511 70 212 0.0 0.0 0.00 0.00 0.00 56 1004.1
20260509223511 70 183 0.0 0.0 0.00 0.00 0.00 58 1004.0
20260509223011 70 143 2.6 0.0 0.00 0.00 0.00 57 1004.0
20260509222511 69 231 1.7 0.0 0.00 0.00 0.00 58 1004.1
20260509221011 69 195 0.0 0.0 0.00 0.00 0.00 58 1004.2
20260509220512 70 216 1.7 0.0 0.00 0.00 0.00 57 1004.2
20260509220011 70 193 0.0 0.0 0.00 0.00 0.00 57 1004.2
20260509215512 69 200 3.5 0.0 0.00 0.00 0.00 57 1004.3
20260509215012 70 193 1.7 0.0 0.00 0.00 0.00 56 1004.3
20260509214511 70 205 10.4 0.0 0.00 0.00 0.00 56 1004.3
20260509214010 70 196 1.7 0.0 0.00 0.00 0.00 56 1004.3
20260509213510 71 199 7.0 0.0 0.00 0.00 0.00 54 1004.3
20260509213010 71 203 1.7 0.0 0.00 0.00 0.00 56 1004.3
20260509212510 71 35 0.0 0.0 0.00 0.00 0.00 55 1004.1
20260509212012 71 209 0.0 0.0 0.00 0.00 0.00 56 1004.1
20260509211011 71 208 0.0 0.0 0.00 0.00 0.00 54 1004.1
20260509210510 71 218 0.0 0.0 0.00 0.00 0.00 57 1004.1
20260509210011 71 198 2.6 0.0 0.00 0.00 0.00 56 1004.1
20260509205512 70 183 0.0 0.0 0.00 0.00 0.00 55 1004.3
20260509205010 70 183 1.7 0.0 0.00 0.00 0.00 59 1004.3
20260509204511 69 183 0.0 0.0 0.00 0.00 0.00 57 1004.3
20260509204014 69 183 0.0 0.0 0.00 0.00 0.00 57 1004.2
20260509203512 69 203 2.6 0.0 0.00 0.00 0.00 58 1004.2
20260509203011 70 193 11.3 0.0 0.00 0.00 0.00 57 1004.2
20260509202510 69 195 0.0 0.0 0.00 0.00 0.00 57 1004.1
20260509201511 70 231 0.0 0.0 0.00 0.00 0.00 56 1004.1
20260509201012 70 231 0.0 0.0 0.00 0.00 0.00 56 1004.1
20260509200510 70 203 0.0 0.0 0.00 0.00 0.00 55 1004.1
20260509195512 70 176 3.5 0.0 0.00 0.00 0.00 55 1004.1
20260509195012 70 167 6.1 0.0 0.00 0.00 0.00 56 1004.1
20260509194010 70 207 0.9 0.0 0.00 0.00 0.00 55 1004.0
20260509193510 70 206 0.0 0.0 0.00 0.00 0.00 54 1004.0
20260509192510 71 205 0.0 0.0 0.00 0.00 0.00 52 1004.1
20260509192010 71 203 3.5 0.0 0.00 0.00 0.00 54 1004.1
20260509191512 71 231 0.0 0.0 0.00 0.00 0.00 54 1004.1
20260509191012 70 191 0.0 0.0 0.00 0.00 0.00 55 1004.3
20260509190512 70 195 0.9 0.0 0.00 0.00 0.00 54 1004.3
20260509190012 71 191 3.5 0.0 0.00 0.00 0.00 54 1004.3
20260509185510 70 186 0.0 0.0 0.00 0.00 0.00 56 1004.3
20260509185010 70 191 2.6 0.0 0.00 0.00 0.00 56 1004.3
20260509184010 70 30 2.6 0.0 0.00 0.00 0.00 56 1004.2
20260509183510 69 188 0.9 0.0 0.00 0.00 0.00 58 1004.2
20260509182510 68 206 5.2 0.0 0.00 0.00 0.00 57 1004.5
20260509182010 68 165 0.9 0.0 0.00 0.00 0.00 58 1004.5
20260509181510 68 216 0.0 0.0 0.00 0.00 0.00 58 1004.5
20260509181011 68 342 0.0 0.0 0.00 0.00 0.00 60 1004.6
20260509180510 68 271 5.2 0.0 0.00 0.00 0.00 59 1004.6
20260509180010 67 112 0.0 0.0 0.00 0.00 0.00 58 1004.6
20260509175511 67 198 0.0 0.0 0.00 0.00 0.00 59 1004.7
20260509175011 68 199 4.3 0.0 0.00 0.00 0.00 58 1004.7
20260509174513 67 324 1.7 0.0 0.00 0.00 0.00 61 1004.7
20260509174011 67 195 0.0 0.0 0.00 0.00 0.00 61 1004.8
20260509173512 66 195 0.0 0.0 0.00 0.00 0.00 60 1004.8
20260509173013 66 176 2.6 0.0 0.00 0.00 0.00 60 1004.8
20260509172511 66 196 0.0 0.0 0.00 0.00 0.00 61 1004.8
20260509172011 66 193 5.2 0.0 0.00 0.00 0.00 59 1004.8
20260509171511 66 296 1.7 0.0 0.00 0.00 0.00 58 1004.8
20260509171011 66 195 0.0 0.0 0.00 0.00 0.00 58 1005.0
20260509170013 66 221 0.0 0.0 0.00 0.00 0.00 60 1005.0
20260509165511 66 208 2.6 0.0 0.00 0.00 0.00 58 1005.1
20260509165011 66 188 0.9 0.0 0.00 0.00 0.00 59 1005.1
20260509164511 66 177 4.3 0.0 0.00 0.00 0.00 58 1005.1
20260509164011 66 202 0.9 0.0 0.00 0.00 0.00 58 1005.0
20260509162511 66 238 0.0 0.0 0.00 0.00 0.00 60 1005.0
20260509162011 66 196 1.7 0.0 0.00 0.00 0.00 60 1005.0
20260509161511 65 195 0.0 0.0 0.00 0.00 0.00 59 1005.0
20260509161011 65 209 0.0 0.0 0.00 0.00 0.00 59 1005.0
20260509155511 65 116 0.0 0.0 0.00 0.00 0.00 60 1004.8
20260509155012 65 118 0.0 0.0 0.00 0.00 0.00 60 1004.8
20260509154511 65 300 0.9 0.0 0.00 0.00 0.00 60 1004.8
20260509154011 65 204 1.7 0.0 0.00 0.00 0.00 61 1004.6
20260509153511 64 223 0.0 0.0 0.00 0.00 0.00 61 1004.6
20260509153011 64 193 0.9 0.0 0.00 0.00 0.00 61 1004.6
20260509152511 64 172 0.0 0.0 0.00 0.00 0.00 62 1004.7
20260509152012 64 172 0.0 0.0 0.00 0.00 0.00 63 1004.7
20260509151012 64 203 0.9 0.0 0.00 0.00 0.00 63 1004.7
20260509150510 63 203 0.0 0.0 0.00 0.00 0.00 63 1004.7
20260509150011 63 203 0.0 0.0 0.00 0.00 0.00 64 1004.7
20260509145511 63 202 0.0 0.0 0.00 0.00 0.00 62 1004.9
20260509144511 62 202 0.0 0.0 0.00 0.00 0.00 64 1004.9
20260509144010 62 202 0.0 0.0 0.00 0.00 0.00 63 1004.8
20260509143511 62 202 0.0 0.0 0.00 0.00 0.00 63 1004.8
20260509143010 62 202 0.0 0.0 0.00 0.00 0.00 62 1004.8
20260509142511 62 142 0.0 0.0 0.00 0.00 0.00 63 1004.8
20260509142011 62 142 0.0 0.0 0.00 0.00 0.00 63 1004.8
20260509141511 62 142 0.0 0.0 0.00 0.00 0.00 64 1004.8
20260509141010 61 142 0.0 0.0 0.00 0.00 0.00 64 1005.0
20260509140511 61 142 0.0 0.0 0.00 0.00 0.00 67 1005.0
20260509140011 61 143 0.0 0.0 0.00 0.00 0.00 68 1005.0
20260509135511 60 142 0.0 0.0 0.00 0.00 0.00 67 1005.0
20260509135011 60 142 0.0 0.0 0.00 0.00 0.00 66 1005.0
20260509134512 60 142 0.0 0.0 0.00 0.00 0.00 67 1005.0
20260509133012 59 142 0.0 0.0 0.00 0.00 0.00 69 1004.8
20260509132512 59 142 0.0 0.0 0.00 0.00 0.00 68 1004.7
20260509132010 59 141 0.0 0.0 0.00 0.00 0.00 71 1004.7
20260509131010 58 142 0.0 0.0 0.00 0.00 0.00 73 1004.6
20260509130511 58 142 0.0 0.0 0.00 0.00 0.00 73 1004.6
20260509130010 58 143 0.0 0.0 0.00 0.00 0.00 78 1004.6
20260509125510 57 142 0.0 0.0 0.00 0.00 0.00 79 1004.7
20260509125010 57 142 0.0 0.0 0.00 0.00 0.00 80 1004.7
20260509124011 56 142 0.0 0.0 0.00 0.00 0.00 83 1004.8
20260509123511 56 142 0.0 0.0 0.00 0.00 0.00 82 1004.8
20260509123010 56 141 0.0 0.0 0.00 0.00 0.00 83 1004.8
20260509122510 55 141 0.0 0.0 0.00 0.00 0.00 84 1004.8
20260509122010 55 141 0.0 0.0 0.00 0.00 0.00 85 1004.8
20260509121511 55 141 0.0 0.0 0.00 0.00 0.00 86 1004.8
20260509121011 54 142 0.0 0.0 0.00 0.00 0.00 87 1004.6
20260509120510 54 141 0.0 0.0 0.00 0.00 0.00 87 1004.6
20260509115511 54 142 0.0 0.0 0.00 0.00 0.00 88 1004.6
20260509115012 53 142 0.0 0.0 0.00 0.00 0.00 88 1004.6
20260509114510 53 141 0.0 0.0 0.00 0.00 0.00 89 1004.6
20260509113512 52 141 0.0 0.0 0.00 0.00 0.00 90 1004.5
20260509113010 52 141 0.0 0.0 0.00 0.00 0.00 90 1004.5
20260509112510 52 142 0.0 0.0 0.00 0.00 0.00 90 1004.6
20260509112010 51 141 0.0 0.0 0.00 0.00 0.00 90 1004.6
20260509105512 51 142 0.0 0.0 0.00 0.00 0.00 90 1004.5
20260509105010 51 141 0.0 0.0 0.00 0.00 0.00 90 1004.5
20260509103012 52 141 0.0 0.0 0.00 0.00 0.00 90 1004.4
20260509102511 52 141 0.0 0.0 0.00 0.00 0.00 89 1004.4
20260509102013 52 141 0.0 0.0 0.00 0.00 0.00 89 1004.4
20260509101511 52 141 0.0 0.0 0.00 0.00 0.00 89 1004.4
20260509101013 52 141 0.0 0.0 0.00 0.00 0.00 88 1004.3
20260509100511 52 141 0.0 0.0 0.00 0.00 0.00 88 1004.3
20260509100011 52 141 0.0 0.0 0.00 0.00 0.00 88 1004.3
20260509095511 52 141 0.0 0.0 0.00 0.00 0.00 88 1004.4
20260509095011 52 141 0.0 0.0 0.00 0.00 0.00 87 1004.4
20260509094011 52 141 0.0 0.0 0.00 0.00 0.00 87 1004.4
20260509093511 52 141 0.0 0.0 0.00 0.00 0.00 87 1004.4
20260509093011 52 141 0.0 0.0 0.00 0.00 0.00 87 1004.4
20260509092011 52 141 0.0 0.0 0.00 0.00 0.00 86 1004.5
20260509091511 52 141 0.0 0.0 0.00 0.00 0.00 86 1004.5
20260509091011 52 141 0.0 0.0 0.00 0.00 0.00 87 1004.6
20260509090511 52 141 0.0 0.0 0.00 0.00 0.00 87 1004.6
20260509090011 52 141 0.0 0.0 0.00 0.00 0.00 86 1004.6
20260509085511 52 141 0.0 0.0 0.00 0.00 0.00 87 1004.6
20260509085011 52 141 0.0 0.0 0.00 0.00 0.00 87 1004.6
20260509084511 52 141 0.0 0.0 0.00 0.00 0.00 87 1004.6
20260509082511 52 141 0.0 0.0 0.00 0.00 0.00 87 1004.7
20260509082011 52 141 0.0 0.0 0.00 0.00 0.00 87 1004.7
20260509081511 52 141 0.0 0.0 0.00 0.00 0.00 86 1004.7
20260509081011 52 141 0.0 0.0 0.00 0.00 0.00 86 1004.8
20260509080511 52 141 0.0 0.0 0.00 0.00 0.00 86 1004.8
20260509080011 52 141 0.0 0.0 0.00 0.00 0.00 86 1004.8
20260509075511 51 141 0.0 0.0 0.00 0.00 0.00 87 1004.8
20260509075011 51 142 0.0 0.0 0.00 0.00 0.00 86 1004.8
20260509074513 51 141 0.0 0.0 0.00 0.00 0.00 86 1004.8
20260509074011 51 141 0.0 0.0 0.00 0.00 0.00 86 1004.8
20260509073511 51 141 0.0 0.0 0.00 0.00 0.00 86 1004.8
20260509073011 51 141 0.0 0.0 0.00 0.00 0.00 86 1004.8
20260509072011 51 141 0.0 0.0 0.00 0.00 0.00 86 1004.9
20260509071511 51 141 0.0 0.0 0.00 0.00 0.00 86 1004.9
20260509071011 51 141 0.0 0.0 0.00 0.00 0.00 86 1004.9
20260509070512 51 141 0.0 0.0 0.00 0.00 0.00 86 1004.9
20260509070011 51 141 0.0 0.0 0.00 0.00 0.00 86 1004.9
20260509064511 51 141 0.0 0.0 0.00 0.00 0.00 85 1005.0
20260509064010 51 141 0.0 0.0 0.00 0.00 0.00 85 1005.0
20260509063011 51 141 0.0 0.0 0.00 0.00 0.00 85 1005.0
20260509062511 51 141 0.0 0.0 0.00 0.00 0.00 84 1005.0
20260509061511 51 141 0.0 0.0 0.00 0.00 0.00 84 1005.0
20260509061011 51 141 0.0 0.0 0.00 0.00 0.00 84 1005.2
20260509060511 51 141 0.0 0.0 0.00 0.00 0.00 83 1005.2
20260509060011 51 141 0.0 0.0 0.00 0.00 0.00 83 1005.2
20260509055510 52 142 0.0 0.0 0.00 0.00 0.00 83 1005.2
20260509055011 52 141 0.0 0.0 0.00 0.00 0.00 82 1005.2
20260509053010 53 141 0.0 0.0 0.00 0.00 0.00 79 1005.2
20260509052012 53 141 0.0 0.0 0.00 0.00 0.00 79 1005.3
20260509051512 53 141 0.0 0.0 0.00 0.00 0.00 78 1005.3
20260509051010 53 141 0.0 0.0 0.00 0.00 0.00 78 1005.3
20260509050511 53 141 0.0 0.0 0.00 0.00 0.00 78 1005.3
20260509050011 53 141 0.0 0.0 0.00 0.00 0.00 77 1005.3
20260509045511 53 141 0.0 0.0 0.00 0.00 0.00 77 1005.3
20260509044012 54 141 0.0 0.0 0.00 0.00 0.00 76 1005.2
20260509043012 54 141 0.0 0.0 0.00 0.00 0.00 75 1005.2
20260509042510 54 141 0.0 0.0 0.00 0.00 0.00 74 1005.4
20260509042011 54 141 0.0 0.0 0.00 0.00 0.00 75 1005.4
20260509041510 54 141 1.7 0.0 0.00 0.00 0.00 75 1005.4
20260509041010 54 141 0.0 0.0 0.00 0.00 0.00 74 1005.6
20260509040510 54 142 0.0 0.0 0.00 0.00 0.00 74 1005.6
20260509040010 55 141 0.0 0.0 0.00 0.00 0.00 73 1005.6
20260509035510 55 141 0.0 0.0 0.00 0.00 0.00 73 1005.7
20260509035010 55 141 0.0 0.0 0.00 0.00 0.00 73 1005.7
20260509034510 55 141 0.0 0.0 0.00 0.00 0.00 72 1005.7
20260509034010 55 141 0.9 0.0 0.00 0.00 0.00 72 1005.8
20260509033510 55 141 0.0 0.0 0.00 0.00 0.00 71 1005.8
20260509032512 55 141 0.0 0.0 0.00 0.00 0.00 71 1005.8
20260509032010 55 141 0.0 0.0 0.00 0.00 0.00 70 1005.8
20260509031510 55 141 0.0 0.0 0.00 0.00 0.00 71 1005.8
20260509031010 55 141 0.0 0.0 0.00 0.00 0.00 70 1005.8
20260509030510 55 141 0.0 0.0 0.00 0.00 0.00 69 1005.8
20260509030010 56 141 0.0 0.0 0.00 0.00 0.00 68 1005.8
20260509025510 56 141 0.0 0.0 0.00 0.00 0.00 69 1006.0
20260509025012 56 141 1.7 0.0 0.00 0.00 0.00 68 1006.0
20260509024510 56 196 0.0 0.0 0.00 0.00 0.00 67 1006.0
20260509024010 56 196 0.0 0.0 0.00 0.00 0.00 66 1006.2
20260509023510 56 196 0.0 0.0 0.00 0.00 0.00 66 1006.2